{"data":{"norad_id":68565,"epoch":"2026-05-25T00:45:46.603296Z","epoch_age_seconds":71655,"freshness":"FRESH","line1":"1 68565U 26070Z   26145.03178939  .00029090  00000+0  86873-3 0  9997","line2":"2 68565  53.1587   7.2093 0001134  84.6978 275.4154 15.34401026  8252","mean_motion":15.34401026,"eccentricity":0.0001134,"inclination_deg":53.1587,"raan_deg":7.2093,"arg_perigee_deg":84.6978,"mean_anomaly_deg":275.4154,"bstar":0.00086873,"rev_number":825,"period_min":93.84769532864,"perigee_km":461.92443978316,"apogee_km":463.47594165801,"semimajor_km":6840.8371907206,"source":"CELESTRAK","updated_at":"2026-05-25T13:38:21.964483Z"}}